Terminal Aerodrome Forecast
Issued by NWS

Home | Current Version | Previous Version | Text Only | Print | Product List | Glossary On
Versions: 1 2 3 4 5 6 7 8 9 10 11 12 13 14 15 16 17 18 19 20 21 22 23 24 25 26 27 28 29 30 31 32 33 34 35 36 37 38 39 40 41 42 43 44 45 46 47 48 49 50
000
FTUS41 KCTP 281734
TAFUNV
TAF
KUNV 281734Z 2818/2918 03006KT P6SM VCSH BKN015 OVC100
      TEMPO 2818/2820 3SM -SHRA OVC015
     FM282000 08006KT 6SM -SHRA VCTS OVC025CB
     FM290000 04008KT 3SM -SHRA BR OVC012
     FM291400 01009G16KT P6SM BKN035=

USA.gov is the U.S. government's official web portal to all federal, state and local government web resources and services.